This is the latest recevied weather packets stored in our database for station/object TA2EE-10. If no packets are shown the sender has not sent any weather packets the latest 10 day(s).
| Time | Temp. | Humidity | Pressure | Rain* | Wind** | Luminosity | Snow |
|---|---|---|---|---|---|---|---|
| 1777527836 | 27.22° C | 21% | 915 hPa | - | - | 0 W/m² | - |
| 1777525714 | 22.22° C | 27% | 915 hPa | - | - | 0 W/m² | - |
| 1777523590 | 20° C | 30% | 915 hPa | - | - | 0 W/m² | - |
| 1777521468 | 19.44° C | 33% | 915 hPa | - | - | 0 W/m² | - |
| 1777519345 | 19.44° C | 33% | 915 hPa | - | - | 0 W/m² | - |
| 1777517222 | 20° C | 33% | 915 hPa | - | - | 0 W/m² | - |
| 1777515100 | 20° C | 31% | 915 hPa | - | - | 0 W/m² | - |
| 1777512977 | 20.56° C | 29% | 915 hPa | - | - | 0 W/m² | - |
| 1777510855 | 21.11° C | 27% | 915 hPa | - | - | 0 W/m² | - |
| 1777508732 | 21.11° C | 27% | 915 hPa | - | - | 0 W/m² | - |
| 1777507958 | 21.11° C | 26% | 914 hPa | - | - | 0 W/m² | - |
| 1777506084 | 21.67° C | 26% | 914 hPa | - | - | 0 W/m² | - |
| 1777503962 | 22.22° C | 28% | 914 hPa | - | - | 0 W/m² | - |
| 1777501840 | 22.22° C | 27% | 915 hPa | - | - | 0 W/m² | - |
| 1777499718 | 22.78° C | 27% | 915 hPa | - | - | 0 W/m² | - |
| 1777497596 | 22.78° C | 27% | 915 hPa | - | - | 0 W/m² | - |
| 1777495474 | 23.33° C | 27% | 914 hPa | - | - | 0 W/m² | - |
| 1777493352 | 23.89° C | 24% | 914 hPa | - | - | 0 W/m² | - |
| 1777491230 | 24.44° C | 23% | 914 hPa | - | - | 0 W/m² | - |
| 1777489108 | 25° C | 21% | 914 hPa | - | - | 0 W/m² | - |
| 1777486986 | 25.56° C | 19% | 914 hPa | - | - | 0 W/m² | - |
| 1777486918 | 25.56° C | 20% | 914 hPa | - | - | 0 W/m² | - |
| 1777484796 | 25.56° C | 22% | 913 hPa | - | - | 0 W/m² | - |
| 1777482674 | 28.33° C | 27% | 913 hPa | - | - | 0 W/m² | - |
| 1777480552 | 27.78° C | 22% | 912 hPa | - | - | 0 W/m² | - |
* Rain since midnight (hover to see other rain measurements)
** Current wind speed in m/s (hover to see current wind gust speed)